| time (UTC) | temp C | wind direction | speed KPH | gust KPH | rain 1hr cm | rain 24hr cm | rain mn cm | humidity % | barometer mb |
| 20260505121714 | 13 | 206 | 0.0 | 0.0 | 0.00 | 0.00 | 0.00 | 74 | 1020.5 |
| 20260505120214 | 13 | 207 | 1.6 | 1.6 | 0.00 | 0.00 | 0.00 | 74 | 1020.5 |
| 20260505114715 | 13 | 181 | 0.0 | 0.0 | 0.00 | 0.00 | 0.00 | 74 | 1020.9 |
| 20260505113221 | 13 | 181 | 0.0 | 0.0 | 0.00 | 0.00 | 0.00 | 73 | 1020.9 |
| 20260505111714 | 13 | 180 | 0.0 | 0.0 | 0.00 | 0.00 | 0.00 | 73 | 1020.5 |
| 20260505110215 | 13 | 180 | 0.0 | 0.0 | 0.00 | 0.00 | 0.00 | 72 | 1020.9 |
| 20260505101714 | 13 | 188 | 0.0 | 0.0 | 0.00 | 0.00 | 0.00 | 71 | 1020.9 |
| 20260505100214 | 13 | 183 | 0.0 | 1.6 | 0.00 | 0.00 | 0.00 | 71 | 1020.9 |
| 20260505094714 | 13 | 157 | 0.0 | 0.0 | 0.00 | 0.00 | 0.00 | 71 | 1020.9 |
| 20260505093214 | 13 | 179 | 0.0 | 0.0 | 0.00 | 0.00 | 0.00 | 69 | 1020.5 |
| 20260505091714 | 13 | 161 | 0.0 | 1.6 | 0.00 | 0.00 | 0.00 | 70 | 1020.5 |
| 20260505090214 | 13 | 165 | 0.0 | 1.6 | 0.00 | 0.00 | 0.00 | 70 | 1020.5 |
| 20260505084714 | 13 | 151 | 0.0 | 1.6 | 0.00 | 0.00 | 0.00 | 69 | 1020.5 |
| 20260505083214 | 13 | 161 | 0.0 | 0.0 | 0.00 | 0.00 | 0.00 | 69 | 1020.2 |
| 20260505081714 | 13 | 199 | 1.6 | 3.2 | 0.00 | 0.00 | 0.00 | 68 | 1020.2 |
| 20260505080214 | 14 | 119 | 0.0 | 0.0 | 0.00 | 0.00 | 0.00 | 70 | 1020.2 |
| 20260505074714 | 14 | 100 | 0.0 | 0.0 | 0.00 | 0.00 | 0.00 | 68 | 1019.8 |
| 20260505073214 | 14 | 101 | 0.0 | 0.0 | 0.00 | 0.00 | 0.00 | 68 | 1019.8 |
| 20260505071714 | 14 | 72 | 0.0 | 3.2 | 0.00 | 0.00 | 0.00 | 67 | 1019.5 |
| 20260505070214 | 14 | 52 | 3.2 | 3.2 | 0.00 | 0.00 | 0.00 | 66 | 1019.5 |
| 20260505064714 | 15 | 107 | 1.6 | 3.2 | 0.00 | 0.00 | 0.00 | 65 | 1019.2 |
| 20260505063214 | 15 | 74 | 1.6 | 3.2 | 0.00 | 0.00 | 0.00 | 64 | 1019.2 |
| 20260505061714 | 15 | 99 | 0.0 | 3.2 | 0.00 | 0.00 | 0.00 | 65 | 1019.2 |
| 20260505060214 | 15 | 81 | 1.6 | 6.4 | 0.00 | 0.00 | 0.00 | 64 | 1019.2 |
| 20260505054714 | 15 | 57 | 0.0 | 9.7 | 0.00 | 0.00 | 0.00 | 64 | 1018.8 |
| 20260505053214 | 15 | 74 | 1.6 | 4.8 | 0.00 | 0.00 | 0.00 | 64 | 1018.8 |
| 20260505051714 | 15 | 78 | 0.0 | 3.2 | 0.00 | 0.00 | 0.00 | 63 | 1018.5 |
| 20260505050214 | 15 | 106 | 1.6 | 4.8 | 0.00 | 0.00 | 0.00 | 63 | 1018.5 |
| 20260505041714 | 15 | 63 | 0.0 | 3.2 | 0.00 | 0.00 | 0.00 | 63 | 1018.1 |
| 20260505040214 | 15 | 74 | 3.2 | 4.8 | 0.00 | 0.00 | 0.00 | 62 | 1018.1 |
| 20260505034714 | 14 | 129 | 3.2 | 6.4 | 0.00 | 0.00 | 0.00 | 63 | 1018.5 |
| 20260505033214 | 14 | 78 | 4.8 | 6.4 | 0.00 | 0.00 | 0.00 | 63 | 1018.1 |
| 20260505031715 | 15 | 53 | 0.0 | 6.4 | 0.00 | 0.00 | 0.00 | 60 | 1018.1 |
| 20260505030214 | 15 | 88 | 6.4 | 9.7 | 0.00 | 0.00 | 0.00 | 59 | 1018.1 |
| 20260505024714 | 15 | 66 | 1.6 | 9.7 | 0.00 | 0.00 | 0.00 | 61 | 1018.5 |
| 20260505023214 | 14 | 107 | 4.8 | 17.7 | 0.00 | 0.00 | 0.00 | 61 | 1018.1 |
| 20260505021714 | 14 | 79 | 6.4 | 11.3 | 0.00 | 0.00 | 0.00 | 65 | 1018.5 |
| 20260505020214 | 14 | 57 | 0.0 | 6.4 | 0.00 | 0.00 | 0.00 | 65 | 1018.5 |
| 20260505014714 | 14 | 53 | 3.2 | 11.3 | 0.00 | 0.00 | 0.00 | 66 | 1018.5 |
| 20260505013214 | 14 | 72 | 0.0 | 3.2 | 0.00 | 0.00 | 0.00 | 67 | 1018.5 |
| 20260505011714 | 14 | 111 | 6.4 | 12.9 | 0.00 | 0.00 | 0.00 | 65 | 1018.5 |
| 20260505010214 | 13 | 81 | 6.4 | 11.3 | 0.00 | 0.00 | 0.00 | 68 | 1018.5 |
| 20260505004714 | 13 | 110 | 4.8 | 9.7 | 0.00 | 0.00 | 0.00 | 69 | 1018.5 |
| 20260505003214 | 14 | 67 | 9.7 | 14.5 | 0.00 | 0.00 | 0.00 | 69 | 1018.1 |
| 20260505001714 | 14 | 44 | 6.4 | 6.4 | 0.00 | 0.00 | 0.00 | 68 | 1018.1 |
| 20260505000214 | 13 | 87 | 1.6 | 14.5 | 0.00 | 0.00 | 0.00 | 69 | 1018.1 |
| 20260504234714 | 13 | 57 | 6.4 | 16.1 | 0.00 | 0.00 | 0.00 | 69 | 1017.8 |
| 20260504233214 | 13 | 53 | 0.0 | 6.4 | 0.00 | 0.00 | 0.00 | 72 | 1017.8 |
| 20260504231714 | 13 | 317 | 8.0 | 11.3 | 0.00 | 0.00 | 0.00 | 75 | 1017.8 |
| 20260504230214 | 13 | 61 | 8.0 | 11.3 | 0.00 | 0.00 | 0.00 | 76 | 1017.8 |
| 20260504224714 | 13 | 45 | 3.2 | 6.4 | 0.00 | 0.00 | 0.00 | 79 | 1017.5 |
| 20260504223302 | 13 | 115 | 3.2 | 4.8 | 0.00 | 0.00 | 0.00 | 82 | 1017.1 |
| 20260504221714 | 12 | 147 | 0.0 | 3.2 | 0.00 | 0.00 | 0.00 | 86 | 1016.8 |
| 20260504220214 | 12 | 147 | 1.6 | 4.8 | 0.00 | 0.00 | 0.00 | 88 | 1016.8 |
| 20260504214714 | 11 | 110 | 3.2 | 3.2 | 0.00 | 0.00 | 0.00 | 88 | 1016.5 |
| 20260504213214 | 11 | 111 | 1.6 | 4.8 | 0.00 | 0.00 | 0.00 | 88 | 1016.1 |
| 20260504211714 | 11 | 94 | 1.6 | 4.8 | 0.00 | 0.00 | 0.00 | 88 | 1015.8 |
| 20260504210214 | 11 | 136 | 1.6 | 4.8 | 0.00 | 0.00 | 0.00 | 88 | 1016.1 |
| 20260504204714 | 11 | 79 | 1.6 | 3.2 | 0.00 | 0.00 | 0.00 | 88 | 1015.1 |
| 20260504203214 | 11 | 121 | 1.6 | 1.6 | 0.00 | 0.00 | 0.00 | 88 | 1015.1 |
| 20260504201714 | 11 | 121 | 1.6 | 1.6 | 0.00 | 0.00 | 0.00 | 88 | 1015.1 |
| 20260504200214 | 12 | 174 | 3.2 | 4.8 | 0.00 | 0.00 | 0.00 | 87 | 1015.1 |
| 20260504194714 | 12 | 122 | 1.6 | 3.2 | 0.00 | 0.00 | 0.00 | 82 | 1014.4 |
| 20260504193214 | 12 | 95 | 1.6 | 4.8 | 0.00 | 0.00 | 0.00 | 80 | 1014.8 |
| 20260504191715 | 12 | 105 | 3.2 | 6.4 | 0.00 | 0.00 | 0.00 | 80 | 1014.4 |
| 20260504190214 | 12 | 116 | 0.0 | 3.2 | 0.00 | 0.00 | 0.00 | 79 | 1014.4 |
| 20260504184714 | 12 | 126 | 3.2 | 6.4 | 0.00 | 0.00 | 0.00 | 79 | 1014.1 |
| 20260504183214 | 12 | 85 | 8.0 | 12.9 | 0.00 | 0.00 | 0.00 | 79 | 1014.1 |
| 20260504181715 | 12 | 128 | 0.0 | 6.4 | 0.00 | 0.00 | 0.00 | 78 | 1013.7 |
| 20260504180214 | 12 | 94 | 3.2 | 9.7 | 0.00 | 0.00 | 0.00 | 77 | 1013.4 |
| 20260504174715 | 13 | 91 | 4.8 | 6.4 | 0.00 | 0.00 | 0.00 | 76 | 1013.7 |
| 20260504173214 | 13 | 77 | 4.8 | 9.7 | 0.00 | 0.00 | 0.00 | 76 | 1013.4 |
| 20260504171714 | 13 | 88 | 3.2 | 6.4 | 0.00 | 0.00 | 0.00 | 76 | 1013.4 |
| 20260504170214 | 12 | 109 | 1.6 | 6.4 | 0.00 | 0.00 | 0.00 | 77 | 1013.1 |
| 20260504160214 | 13 | 139 | 1.6 | 1.6 | 0.00 | 0.00 | 0.00 | 80 | 1013.1 |
| 20260504150214 | 13 | 122 | 1.6 | 3.2 | 0.00 | 0.00 | 0.00 | 78 | 1012.7 |
| 20260504140214 | 13 | 126 | 1.6 | 3.2 | 0.00 | 0.00 | 0.00 | 79 | 1012.4 |
| 20260504130215 | 13 | 150 | 1.6 | 6.4 | 0.00 | 0.00 | 0.05 | 78 | 1012.0 |